Location: Taukkyan
(23.1052°N, 94.0030°E)
Time: 11:08:03
(UTC+00:00)

Cosmos 2228 - Pass Details

Date: 06 July 2020
Orbit: 590 x 617 km, 82.5° (Epoch: 14 August)

Event Time Altitude Azimuth Distance (km) Brightness Sun altitude
Rises 13:32:43 0° 346° (NNW) 2,868 7.2 -12.8°
Reaches altitude 10° 13:34:59 10° 340° (NNW) 1,966 6.4 -13.2°
Maximum altitude 13:39:09 46° 268° (W) 826 4.1 -14.0°
Drops below altitude 10° 13:43:20 10° 194° (SSW) 1,968 5.4 -14.8°
Sets 13:45:36 0° 188° (S) 2,872 6.2 -15.3°
